[[{"header":{"parameterUnit":"m.s-1","parameterCategory":1,"la1":30.2991,"la2":30.254,"lo1":-89.0895,"lo2":-89.0444,"dy":0.0017,"dx":0.0017,"nx":28,"ny":28,"refTime":"2024-02-08T09:00:00:Z","depth":0,"parameterNumber":2,"parameterNumberName":"U-component_of_WINDS"},"data":[0,0,0,0,0,0,0,0,0,0,0,0,0,0,0,0,0,0,0,0,0,0,0,0,0,0,0,0,0,0,0,0,0,0,0,0,0,0,0,0,0,0,0,0,0,0,0,0,0,0,0,0,0,0,0,0,0,0,-2.9847,-2.9846,0,-2.9819,-2.9818,-2.9818,-2.9769,-2.9768,-2.9767,-2.9766,-2.9739,-2.9739,-2.9739,0,0,0,0,0,0,0,0,0,0,0,0,0,-2.9858,-2.9859,-2.9847,-2.9846,-2.9846,-2.9819,-2.9818,-2.9818,-2.9769,-2.9768,-2.9767,-2.9766,-2.9738,-2.9739,-2.9739,0,0,0,0,0,0,0,0,0,0,0,0,0,-2.9844,-2.9859,-2.9847,-2.9818,-2.9815,-2.9819,-2.9818,-2.9818,-2.9769,-2.9768,-2.9766,-2.9765,-2.9738,-2.9739,-2.9739,-2.9768,0,0,-2.9739,-2.974,0,0,0,0,0,0,0,0,-2.9845,-2.9844,-2.9823,-2.982,-2.9817,-2.9796,-2.9812,-2.9801,-2.977,-2.9787,-2.9766,-2.9764,-2.9759,-2.9757,-2.9755,-2.9767,-2.9766,-2.9739,-2.974,-2.974,-2.974,0,0,0,0,0,0,0,-2.9846,-2.9845,-2.9836,-2.9822,-2.9819,-2.9807,-2.9804,-2.981,-2.9781,-2.9785,-2.9781,-2.9779,-2.9757,-2.9755,-2.9754,-2.9765,-2.9739,-2.974,-2.974,-2.974,-2.9799,-2.9801,0,0,0,0,0,0,-2.9851,-2.9846,-2.9836,-2.9835,-2.9828,-2.9808,-2.9804,-2.9804,-2.9781,-2.9776,-2.978,-2.9777,-2.9755,-2.9754,-2.9753,-2.9785,-2.974,-2.974,-2.974,-2.9798,-2.98,-2.9801,0,0,0,0,0,0,-2.9852,-2.9851,-2.9838,-2.9839,-2.9837,-2.9809,-2.981,-2.9804,-2.9802,-2.9777,-2.9772,-2.9783,-2.9754,-2.9753,-2.9765,-2.9783,-2.974,-2.974,-2.9796,-2.9798,-2.98,-2.985,0,0,0,0,0,0,-2.9852,-2.9851,-2.9862,-2.984,-2.9837,-2.9849,-2.9811,-2.9805,-2.9802,-2.9798,-2.9779,-2.9774,-2.9753,-2.9765,-2.9765,-2.9783,-2.974,-2.9794,-2.9797,-2.98,-2.9847,-2.9854,-2.986,0,0,0,0,0,-2.9853,-2.9877,-2.9863,-2.9862,-2.9849,-2.9851,-2.9849,-2.9824,-2.9804,-2.9815,-2.9799,-2.9775,-2.9782,-2.9766,-2.9766,-2.9785,-2.9793,-2.9796,-2.98,-2.9844,-2.9853,-2.986,0,0,0,0,0,0,-2.9903,-2.9874,-2.9857,-2.9875,-2.9866,-2.9842,-2.9855,-2.9834,-2.983,-2.9826,-2.9795,-2.9791,-2.9807,-2.9797,-2.978,-2.9812,-2.9784,-2.9787,-2.9817,-2.9825,-2.9832,-2.9833,-2.9741,0,0,0,0,0,-2.9916,-2.9919,-2.9894,-2.9912,-2.9908,-2.9883,-2.9882,-2.9864,-2.9853,-2.9848,-2.9833,-2.9823,-2.9823,-2.9824,-2.9823,-2.9846,-2.984,-2.9858,-2.9865,-2.987,-2.9873,-2.9884,-2.9892,-2.9812,-2.9812,-2.9812,0,0,-2.9943,-2.9927,-2.9931,-2.9922,-2.9912,-2.9916,-2.9879,-2.9885,-2.9888,-2.9849,-2.9859,-2.9848,-2.9835,-2.9853,-2.986,-2.9845,-2.9894,-2.9875,-2.9879,-2.9879,-2.9888,-2.9896,-2.9903,-2.9814,-2.9814,-2.9813,0,0,-2.9994,-2.9983,-2.9996,-2.9988,-2.9973,-2.9956,-2.996,-2.9939,-2.993,-2.994,-2.9911,-2.9914,-2.9914,-2.9906,-2.9902,-2.9951,-2.9929,-2.9951,-2.9985,-2.9996,-3.0003,-3.0008,-3.0025,-3.0031,-2.9955,-2.9955,-2.9955,0,-3.0029,-3.0033,-3.0006,-3.0014,-3.001,-2.9976,-2.9989,-2.9982,-2.9969,-2.9967,-2.9951,-2.9951,-2.994,-2.9955,-2.9967,-2.9965,-2.9968,-2.9953,-3.0004,-3.0009,-3.0014,-3.0029,-3.0036,-2.9958,-2.9957,-2.9957,-2.9957,0,-3.0077,-3.0081,-3.0094,-3.0081,-3.0079,-3.009,-3.0065,-3.0066,-3.0048,-3.0033,-3.0043,-3.0029,-3.0024,-3.0026,-3.0009,-3.0039,-3.003,-3.001,-2.998,-3.0025,-3.0039,-3.0044,-2.9962,-2.9961,-2.996,-2.9959,0,0,-3.0158,-3.013,-3.0135,-3.0129,-3.0111,-3.0113,-3.0123,-3.0117,-3.0119,-3.0111,-3.0118,-3.012,-3.01,-3.0096,-3.0077,-3.0087,-3.0126,-3.0065,-3.0065,-3.0076,-3.0157,-3.0172,-3.0179,-3.0111,-3.0112,-3.0113,-3.0158,0,-3.0205,-3.0218,-3.0194,-3.0214,-3.0217,-3.0184,-3.0192,-3.0182,-3.0168,-3.0169,-3.0154,-3.0155,-3.013,-3.0127,-3.0135,-3.0119,-3.0141,-3.0116,-3.0117,-3.0117,-3.012,-3.0187,-3.0202,-3.0245,-3.0163,-3.0164,-3.0165,0,-3.0261,-3.0255,-3.0275,-3.0255,-3.0255,-3.0263,-3.0256,-3.0257,-3.0245,-3.0235,-3.023,-3.0208,-3.0216,-3.0189,-3.0199,-3.0182,-3.0181,-3.0174,-3.0175,-3.0173,-3.0143,-3.0186,-3.0258,-3.0264,-3.0173,-3.0173,-3.0172,0,-3.0317,-3.0314,-3.0325,-3.0321,-3.0299,-3.0305,-3.0296,-3.0283,-3.0281,-3.0275,-3.0274,-3.0269,-3.0267,-3.0264,-3.0241,-3.0224,-3.0254,-3.0225,-3.0245,-3.0246,-3.0252,-3.0252,-3.0325,-3.0253,-3.0253,-3.0253,-3.0253,0,-3.0371,-3.0384,-3.035,-3.0357,-3.0371,-3.0343,-3.0358,-3.0346,-3.0334,-3.0338,-3.031,-3.0315,-3.0285,-3.0286,-3.0269,-3.028,-3.0279,-3.027,-3.0265,-3.0272,-3.0273,-3.0271,-3.0267,-3.0255,-3.0255,-3.0254,-3.0254,0,-3.0435,-3.0413,-3.0423,-3.0401,-3.0396,-3.0407,-3.0389,-3.0394,-3.0379,-3.0384,-3.0384,-3.036,-3.036,-3.0337,-3.0333,-3.0321,-3.0339,-3.0329,-3.0343,-3.0339,-3.036,-3.0358,-3.0433,-3.0441,-3.0366,-3.0367,-3.0367,0,-3.0471,-3.048,-3.0459,-3.0459,-3.0452,-3.0453,-3.0451,-3.0425,-3.0424,-3.0411,-3.0418,-3.0416,-3.0413,-3.0414,-3.0396,-3.0393,-3.0382,-3.0408,-3.0381,-3.0388,-3.0381,-3.0381,-3.0381,-3.0414,-3.0415,-3.0416,-3.0416,0,-3.0536,-3.0524,-3.0522,-3.0517,-3.0515,-3.0509,-3.0502,-3.0504,-3.0475,-3.0476,-3.0475,-3.0473,-3.0468,-3.0466,-3.0459,-3.045,-3.0428,-3.0425,-3.0429,-3.0436,-3.0443,-3.0439,-3.0358,-3.0423,-3.0423,-3.0422,-3.0422,-3.0421,-3.0586,-3.0593,-3.0579,-3.0578,-3.0569,-3.0563,-3.0567,-3.0552,-3.0551,-3.0545,-3.053,-3.0531,-3.0519,-3.0508,-3.0501,-3.0502,-3.0488,-3.0495,-3.0496,-3.0498,-3.0502,-3.0444,-3.0501,-3.05,-3.05,-3.05,-3.05,0,-3.0649,-3.0639,-3.0638,-3.0628,-3.0627,-3.0607,-3.0598,-3.0598,-3.06,-3.0591,-3.0588,-3.0587,-3.0585,-3.0567,-3.0563,-3.0567,-3.0557,-3.0567,-3.0566,-3.0564,-3.0514,-3.0511,-3.0575,-3.0575,-3.0575,-3.0575,-3.0575,-3.0575,-3.0682,-3.0692,-3.0679,-3.0684,-3.0674,-3.0675,-3.0671,-3.0665,-3.0657,-3.0658,-3.0656,-3.0644,-3.0631,-3.0626,-3.0623,-3.0618,-3.0617,-3.063,-3.0622,-3.0575,-3.0568,-3.0561,-3.0557,-3.063,-3.063,-3.0671,-3.0671,-3.0672]},{"header":{"parameterUnit":"m.s-1","parameterCategory":1,"la1":30.2991,"la2":30.254,"lo1":-89.0895,"lo2":-89.0444,"dy":0.0017,"dx":0.0017,"nx":28,"ny":28,"refTime":"2024-02-08T09:00:00:Z","depth":0,"parameterNumber":3,"parameterNumberName":"V-component_of_WINDS"},"data":[0,0,0,0,0,0,0,0,0,0,0,0,0,0,0,0,0,0,0,0,0,0,0,0,0,0,0,0,0,0,0,0,0,0,0,0,0,0,0,0,0,0,0,0,0,0,0,0,0,0,0,0,0,0,0,0,0,0,1.9183,1.9183,0,1.9184,1.9184,1.9184,1.9228,1.9229,1.923,1.9231,1.9225,1.9224,1.9223,0,0,0,0,0,0,0,0,0,0,0,0,0,1.9217,1.9216,1.9183,1.9183,1.9183,1.9184,1.9184,1.9184,1.9228,1.9229,1.923,1.9232,1.9226,1.9224,1.9223,0,0,0,0,0,0,0,0,0,0,0,0,0,1.9208,1.9216,1.9183,1.9205,1.9207,1.9184,1.9184,1.9184,1.9227,1.9229,1.9231,1.9232,1.9226,1.9225,1.9223,1.9176,0,0,1.9217,1.9216,0,0,0,0,0,0,0,0,1.9208,1.9207,1.9202,1.9204,1.9206,1.9208,1.9194,1.9181,1.9227,1.9219,1.9231,1.9233,1.9218,1.9217,1.9213,1.9176,1.9176,1.9217,1.9216,1.9215,1.9214,0,0,0,0,0,0,0,1.9209,1.9207,1.9183,1.9202,1.9204,1.9214,1.9215,1.9191,1.9208,1.922,1.9223,1.9223,1.9219,1.9214,1.9213,1.9175,1.9217,1.9215,1.9214,1.9213,1.9105,1.9104,0,0,0,0,0,0,1.9207,1.9207,1.9183,1.9183,1.9212,1.9212,1.9213,1.9205,1.9209,1.9211,1.9222,1.9225,1.9217,1.9215,1.9213,1.9162,1.9215,1.9213,1.9212,1.9107,1.9105,1.9103,0,0,0,0,0,0,1.9208,1.9205,1.9183,1.9196,1.9194,1.921,1.9201,1.9204,1.92,1.921,1.9213,1.9214,1.9218,1.9215,1.9187,1.9162,1.9212,1.9211,1.9109,1.9107,1.9104,1.9057,0,0,0,0,0,0,1.9209,1.9205,1.9187,1.9195,1.9193,1.9157,1.9199,1.9203,1.9197,1.9202,1.9204,1.9206,1.9219,1.9189,1.9185,1.916,1.9209,1.9111,1.9108,1.9105,1.9061,1.9053,1.9047,0,0,0,0,0,1.921,1.9171,1.9186,1.9183,1.9172,1.9156,1.9154,1.9172,1.9195,1.9178,1.9186,1.9206,1.9166,1.9186,1.9181,1.9156,1.9113,1.9109,1.9105,1.9064,1.9055,1.9047,0,0,0,0,0,0,1.9156,1.9173,1.9189,1.9153,1.9153,1.9163,1.9142,1.9161,1.9153,1.9157,1.9179,1.9179,1.9147,1.9148,1.917,1.9114,1.9143,1.9138,1.9114,1.9105,1.9098,1.9098,1.9208,0,0,0,0,0,1.9141,1.9128,1.9142,1.9108,1.9108,1.9125,1.9118,1.9133,1.9133,1.9132,1.9138,1.9135,1.9123,1.9114,1.9103,1.9062,1.9064,1.9043,1.9036,1.903,1.9025,1.9008,1.8999,1.909,1.909,1.909,0,0,1.9107,1.9115,1.9104,1.9098,1.91,1.9086,1.9124,1.9106,1.9096,1.9129,1.9104,1.9108,1.9107,1.9073,1.9058,1.9073,1.9001,1.9025,1.902,1.9018,1.9003,1.8994,1.8986,1.9088,1.9088,1.9089,0,0,1.904,1.9044,1.9019,1.9021,1.9025,1.9037,1.9031,1.904,1.9045,1.902,1.9047,1.9034,1.9011,1.9011,1.9007,1.8946,1.8965,1.8942,1.8904,1.8887,1.888,1.8873,1.8854,1.8846,1.8937,1.8937,1.8937,0,1.8998,1.8978,1.9002,1.8984,1.8982,1.9015,1.899,1.8991,1.8989,1.8987,1.9004,1.898,1.8981,1.895,1.8936,1.8931,1.8926,1.8941,1.8879,1.8873,1.8868,1.8849,1.8842,1.8934,1.8934,1.8935,1.8935,0,1.8928,1.8914,1.8893,1.8896,1.8891,1.8868,1.8889,1.8881,1.8898,1.8908,1.8885,1.8888,1.8881,1.8874,1.8888,1.8846,1.8856,1.8876,1.8906,1.8856,1.8839,1.8832,1.893,1.8931,1.8932,1.8933,0,0,1.8824,1.8844,1.8836,1.884,1.8849,1.8838,1.8819,1.8814,1.8808,1.8807,1.8793,1.8775,1.8796,1.8792,1.8807,1.8791,1.8747,1.8814,1.8815,1.8803,1.8704,1.869,1.8681,1.876,1.8759,1.8758,1.8705,0,1.8761,1.8731,1.8755,1.872,1.871,1.8744,1.8728,1.8731,1.8742,1.8734,1.8744,1.8733,1.876,1.8759,1.8745,1.8755,1.8727,1.8759,1.8747,1.8746,1.8747,1.8672,1.8656,1.8605,1.8698,1.8697,1.8696,0,1.8683,1.8683,1.8649,1.8665,1.8662,1.8646,1.8647,1.8638,1.8644,1.8653,1.8652,1.8672,1.8655,1.8686,1.8664,1.8685,1.8682,1.8686,1.8685,1.8685,1.8718,1.8671,1.8589,1.8583,1.8686,1.8687,1.8687,0,1.8614,1.8605,1.8585,1.8587,1.8604,1.8593,1.86,1.8608,1.8605,1.8605,1.8604,1.86,1.8598,1.8595,1.8615,1.8635,1.8591,1.8622,1.8598,1.8598,1.8587,1.8587,1.8505,1.8583,1.8583,1.8583,1.8583,0,1.8542,1.852,1.8555,1.8543,1.852,1.8548,1.8524,1.8534,1.8542,1.8532,1.856,1.855,1.8576,1.8569,1.8583,1.8564,1.8562,1.857,1.8574,1.8568,1.8567,1.8566,1.8571,1.8581,1.8582,1.8582,1.8582,0,1.846,1.8483,1.8464,1.8484,1.8488,1.8471,1.8488,1.8477,1.8491,1.8479,1.8478,1.8499,1.8493,1.8512,1.8507,1.8518,1.8491,1.85,1.849,1.8493,1.8469,1.8472,1.8384,1.8375,1.8457,1.8456,1.8455,0,1.8413,1.8399,1.8418,1.8416,1.8422,1.8415,1.8415,1.8441,1.8439,1.8448,1.8437,1.8433,1.8432,1.8421,1.8435,1.8433,1.8443,1.8413,1.8443,1.8439,1.8445,1.8447,1.8446,1.8406,1.8405,1.8404,1.8404,0,1.8329,1.8342,1.8341,1.8344,1.8343,1.8346,1.8351,1.8347,1.8376,1.8372,1.8368,1.8367,1.8366,1.8363,1.8365,1.8371,1.8392,1.8395,1.839,1.8383,1.8379,1.8383,1.8474,1.8396,1.8397,1.8397,1.8398,1.8398,1.8265,1.8255,1.8269,1.8267,1.8275,1.828,1.8273,1.8288,1.8286,1.8288,1.8304,1.8297,1.8307,1.8313,1.8317,1.8313,1.8327,1.8318,1.8316,1.8314,1.8312,1.838,1.8313,1.8313,1.8313,1.8313,1.8313,0,1.8184,1.8196,1.8194,1.8203,1.8202,1.8226,1.8234,1.8231,1.8226,1.8235,1.8235,1.8231,1.823,1.8246,1.8247,1.824,1.8251,1.824,1.8241,1.8243,1.8297,1.8303,1.8232,1.8232,1.8232,1.8232,1.8232,1.8232,1.8142,1.8127,1.8143,1.8133,1.8145,1.8141,1.8144,1.8149,1.8157,1.8153,1.8153,1.8165,1.8177,1.818,1.818,1.8185,1.8185,1.8171,1.8179,1.823,1.8238,1.8246,1.8251,1.817,1.817,1.8125,1.8125,1.8125]}]]